Location: Waco, TX
(31.5480°N, 97.1670°W)
Time: 15:46:08
(UTC-06:00)

ISS - Pass Details

Date: 29 January 2021
Orbit: 417 x 422 km, 51.6° (Epoch: 07 March)

Event Time Altitude Azimuth Distance (km) Brightness Sun altitude
Rises 22:03:05 0° 317° (NW) 2,372 - -51.5°
Reaches altitude 10° 22:05:12 10° 319° (NW) 1,505 - -52.0°
Maximum altitude 22:08:34 72° 44° (NE) 444 - -52.7°
Drops below altitude 10° 22:11:55 10° 130° (SE) 1,496 - -53.4°
Sets 22:14:01 0° 132° (SE) 2,357 - -53.8°
